{"data":{"norad_id":49733,"intl_designator":"2021-115K","name":"STARLINK-3252","alt_names":[],"object_type":"PAYLOAD","status":"ACTIVE","operator":null,"country":"US","launch_date":"2021-12-02","launch_site_code":"AFETR","launch_vehicle":null,"mission":null,"orbit_class":"UNKNOWN","rcs_meters":null,"size_class":null,"mass_kg":null,"dimensions":null,"purposes":["comms"],"wikipedia_slug":null,"has_3d_model":false,"image_url":null,"decayed_at":null,"tle_current":{"epoch":"2026-09-19T23:43:00.784992Z","epoch_age_seconds":89230,"freshness":"FRESH","line1":"1 49733U 21115K   26262.98820353  .00004359  00000+0  15224-3 0  9999","line2":"2 49733  53.1602 354.2200 0001116  76.8666 283.2460 15.31682665264896","mean_motion":15.31682665,"eccentricity":0.0001116,"inclination_deg":53.1602,"raan_deg":354.22,"arg_perigee_deg":76.8666,"mean_anomaly_deg":283.246,"bstar":0.00015224,"rev_number":26489,"period_min":94.01425196648,"perigee_km":470.02733000635,"apogee_km":471.55601088559,"semimajor_km":6848.928670446,"source":"CELESTRAK","updated_at":"2026-09-20T09:00:39.404360Z"}}}